Вернуться в каталог

KUIPER-00516

АктивенСвязьVLEO
NORAD 69599·PAYLOAD·🇺🇸 United States

Запущен Jun 17, 2026 с Guiana Space Centre

Loading…

Ближайшие Пролёты (ближайшие 24 часа)

TLE

СвежийSource: CelesTrak SupGP

Эпоха: Sep 14, 2026, 21:17 UTC

1 69599C 26140H   26257.88684028 -.01276300  00000+0 -60152-1 0  2579
2 69599  51.8823 325.6844 0006654 196.4069 193.3231 15.20210810    18

Отслеживайте KUIPER-00516 в реальном времени с AllMySat

Download on the App Store